Time,TemperatureF,DewpointF,PressureIn,WindDirection,WindDirectionDegrees,WindSpeedMPH,WindSpeedGustMPH,Humidity,HourlyPrecipIn,Conditions,Clouds,dailyrainin,SoftwareType,DateUTC
2013-11-15 00:13:00,40.0,24.0,30.06,SW,219,2.0,6.0,52,0.00,,,0.00,,2013-11-15 05:13:00,
2013-11-15 00:23:00,39.0,23.0,30.06,SSW,193,2.0,6.0,52,0.00,,,0.00,,2013-11-15 05:23:00,
2013-11-15 00:43:00,39.0,23.0,30.06,SSW,200,3.0,6.0,52,0.00,,,0.00,,2013-11-15 05:43:00,
2013-11-15 00:53:00,39.0,23.0,30.06,SSW,194,2.0,6.0,52,0.00,,,0.00,,2013-11-15 05:53:00,
2013-11-15 01:12:00,40.0,23.0,30.06,SW,215,3.0,6.0,51,0.00,,,0.00,,2013-11-15 06:12:00,
2013-11-15 01:23:00,40.0,23.0,30.06,SSE,158,2.0,6.0,51,0.00,,,0.00,,2013-11-15 06:23:00,
2013-11-15 01:43:00,40.0,23.0,30.06,SE,145,2.0,7.0,50,0.00,,,0.00,,2013-11-15 06:43:00,
2013-11-15 01:53:00,40.0,23.0,30.06,SSE,163,2.0,6.0,50,0.00,,,0.00,,2013-11-15 06:53:00,
2013-11-15 02:12:00,40.0,23.0,30.06,SSW,208,3.0,8.0,50,0.00,,,0.00,,2013-11-15 07:12:00,
2013-11-15 02:22:00,40.0,22.0,30.05,SW,220,3.0,8.0,49,0.00,,,0.00,,2013-11-15 07:22:00,
2013-11-15 02:42:00,40.0,23.0,30.06,SW,228,2.0,6.0,50,0.00,,,0.00,,2013-11-15 07:42:00,
2013-11-15 02:52:00,40.0,22.0,30.06,SW,225,4.0,9.0,49,0.00,,,0.00,,2013-11-15 07:52:00,
2013-11-15 03:22:00,40.0,22.0,30.06,SW,219,3.0,9.0,49,0.00,,,0.00,,2013-11-15 08:22:00,
2013-11-15 03:42:00,41.0,23.0,30.06,SW,220,3.0,9.0,49,0.00,,,0.00,,2013-11-15 08:42:00,
2013-11-15 03:52:00,41.0,23.0,30.05,SSE,158,4.0,9.0,49,0.00,,,0.00,,2013-11-15 08:52:00,
2013-11-15 04:22:00,41.0,23.0,30.05,SW,215,3.0,8.0,48,0.00,,,0.00,,2013-11-15 09:22:00,
2013-11-15 04:43:00,41.0,23.0,30.05,SSW,201,3.0,8.0,48,0.00,,,0.00,,2013-11-15 09:43:00,
2013-11-15 04:53:00,41.0,23.0,30.05,SSW,205,3.0,7.0,48,0.00,,,0.00,,2013-11-15 09:53:00,
2013-11-15 05:23:00,41.0,23.0,30.05,SE,139,3.0,8.0,49,0.00,,,0.00,,2013-11-15 10:23:00,
2013-11-15 05:43:00,41.0,23.0,30.05,SSW,207,3.0,7.0,49,0.00,,,0.00,,2013-11-15 10:43:00,
2013-11-15 05:52:00,41.0,23.0,30.05,SSW,210,2.0,8.0,49,0.00,,,0.00,,2013-11-15 10:52:00,
2013-11-15 06:12:00,41.0,24.0,30.05,SSW,200,4.0,8.0,50,0.00,,,0.00,,2013-11-15 11:12:00,
2013-11-15 06:22:00,41.0,24.0,30.06,WSW,240,3.0,6.0,51,0.00,,,0.00,,2013-11-15 11:22:00,
2013-11-15 06:42:00,40.0,23.0,30.05,South,186,3.0,6.0,51,0.00,,,0.00,,2013-11-15 11:42:00,
2013-11-15 06:52:00,40.0,24.0,30.05,SSE,163,2.0,6.0,52,0.00,,,0.00,,2013-11-15 11:52:00,
2013-11-15 07:12:00,40.0,24.0,30.06,SW,231,2.0,5.0,52,0.00,,,0.00,,2013-11-15 12:12:00,
2013-11-15 07:22:00,40.0,24.0,30.06,SSW,200,3.0,7.0,52,0.00,,,0.00,,2013-11-15 12:22:00,
2013-11-15 07:42:00,40.0,24.0,30.06,SSW,208,2.0,7.0,53,0.00,,,0.00,,2013-11-15 12:42:00,
2013-11-15 07:52:00,41.0,25.0,30.06,South,191,2.0,6.0,52,0.00,,,0.00,,2013-11-15 12:52:00,
2013-11-15 08:11:00,41.0,25.0,30.06,SSW,198,3.0,7.0,52,0.00,,,0.00,,2013-11-15 13:11:00,
2013-11-15 08:22:00,41.0,24.0,30.06,South,179,3.0,6.0,51,0.00,,,0.00,,2013-11-15 13:22:00,
2013-11-15 08:42:00,41.0,24.0,30.07,South,179,3.0,6.0,51,0.00,,,0.00,,2013-11-15 13:42:00,
2013-11-15 08:52:00,41.0,25.0,30.07,South,183,3.0,7.0,52,0.00,,,0.00,,2013-11-15 13:52:00,
2013-11-15 09:12:00,41.0,25.0,30.07,SW,233,3.0,7.0,52,0.00,,,0.00,,2013-11-15 14:12:00,
2013-11-15 09:22:00,41.0,24.0,30.07,SSW,205,3.0,6.0,51,0.00,,,0.00,,2013-11-15 14:22:00,
2013-11-15 09:42:00,42.0,25.0,30.07,SW,226,3.0,8.0,51,0.00,,,0.00,,2013-11-15 14:42:00,
2013-11-15 09:52:00,42.0,25.0,30.08,SSW,212,3.0,9.0,51,0.00,,,0.00,,2013-11-15 14:52:00,
2013-11-15 10:12:00,43.0,26.0,30.07,SE,142,3.0,9.0,50,0.00,,,0.00,,2013-11-15 15:12:00,
2013-11-15 10:22:00,44.0,26.0,30.07,SW,222,3.0,10.0,49,0.00,,,0.00,,2013-11-15 15:22:00,
2013-11-15 10:43:00,45.0,27.0,30.08,South,188,3.0,14.0,48,0.00,,,0.00,,2013-11-15 15:43:00,
2013-11-15 10:53:00,46.0,27.0,30.07,WSW,250,3.0,10.0,47,0.00,,,0.00,,2013-11-15 15:53:00,
2013-11-15 11:23:00,45.0,26.0,30.08,SW,222,5.0,10.0,47,0.00,,,0.00,,2013-11-15 16:23:00,
2013-11-15 11:43:00,45.0,27.0,30.08,SSW,209,2.0,9.0,49,0.00,,,0.00,,2013-11-15 16:43:00,
2013-11-15 11:53:00,45.0,27.0,30.08,SSW,200,5.0,12.0,49,0.00,,,0.00,,2013-11-15 16:53:00,
2013-11-15 12:22:00,46.0,28.0,30.06,SE,134,5.0,10.0,49,0.00,,,0.00,,2013-11-15 17:22:00,
2013-11-15 12:42:00,46.0,28.0,30.05,South,179,3.0,8.0,49,0.00,,,0.00,,2013-11-15 17:42:00,
2013-11-15 12:52:00,47.0,28.0,30.05,SW,222,3.0,14.0,48,0.00,,,0.00,,2013-11-15 17:52:00,
2013-11-15 13:12:00,47.0,28.0,30.04,SSW,205,2.0,10.0,48,0.00,,,0.00,,2013-11-15 18:12:00,
2013-11-15 13:22:00,48.0,28.0,30.05,SSE,159,5.0,11.0,46,0.00,,,0.00,,2013-11-15 18:22:00,
2013-11-15 13:42:00,48.0,28.0,30.03,SSE,165,4.0,11.0,46,0.00,,,0.00,,2013-11-15 18:42:00,
2013-11-15 13:52:00,49.0,29.0,30.03,SSW,197,4.0,8.0,45,0.00,,,0.00,,2013-11-15 18:52:00,
2013-11-15 14:12:00,49.0,28.0,30.03,South,187,3.0,10.0,44,0.00,,,0.00,,2013-11-15 19:12:00,
2013-11-15 14:21:00,50.0,28.0,30.03,SSW,205,3.0,8.0,43,0.00,,,0.00,,2013-11-15 19:21:00,
2013-11-15 14:42:00,50.0,29.0,30.02,SSW,211,3.0,8.0,44,0.00,,,0.00,,2013-11-15 19:42:00,
2013-11-15 14:52:00,50.0,28.0,30.03,SW,219,3.0,7.0,43,0.00,,,0.00,,2013-11-15 19:52:00,
2013-11-15 15:12:00,50.0,28.0,30.03,SSW,203,2.0,9.0,43,0.00,,,0.00,,2013-11-15 20:12:00,
2013-11-15 15:22:00,50.0,28.0,30.02,SW,235,3.0,9.0,43,0.00,,,0.00,,2013-11-15 20:22:00,
2013-11-15 15:32:00,50.0,28.0,30.02,SW,235,3.0,9.0,43,0.00,,,0.00,,2013-11-15 20:32:00,
2013-11-15 15:42:00,50.0,28.0,30.02,SW,235,3.0,9.0,43,0.00,,,0.00,,2013-11-15 20:42:00,
2013-11-15 15:52:00,50.0,29.0,30.03,SSW,197,3.0,7.0,45,0.00,,,0.00,,2013-11-15 20:52:00,
2013-11-15 16:12:00,49.0,29.0,30.02,SSE,160,4.0,9.0,45,0.00,,,0.00,,2013-11-15 21:12:00,
2013-11-15 16:22:00,49.0,29.0,30.02,SE,141,3.0,10.0,46,0.00,,,0.00,,2013-11-15 21:22:00,
2013-11-15 16:43:00,48.0,30.0,30.02,South,183,2.0,8.0,49,0.00,,,0.00,,2013-11-15 21:43:00,
2013-11-15 16:54:00,48.0,30.0,30.03,SSE,167,4.0,7.0,49,0.00,,,0.00,,2013-11-15 21:54:00,
2013-11-15 17:14:00,48.0,30.0,30.02,SSW,210,2.0,6.0,50,0.00,,,0.00,,2013-11-15 22:14:00,
2013-11-15 17:24:00,47.0,30.0,30.03,South,169,3.0,6.0,51,0.00,,,0.00,,2013-11-15 22:24:00,
2013-11-15 17:43:00,46.0,29.0,30.03,SSW,211,3.0,7.0,52,0.00,,,0.00,,2013-11-15 22:43:00,
2013-11-15 17:53:00,46.0,30.0,30.03,SE,146,2.0,6.0,53,0.00,,,0.00,,2013-11-15 22:53:00,
2013-11-15 18:12:00,45.0,29.0,30.04,SE,126,1.0,5.0,54,0.00,,,0.00,,2013-11-15 23:12:00,
2013-11-15 18:22:00,46.0,30.0,30.04,SSW,193,1.0,4.0,54,0.00,,,0.00,,2013-11-15 23:22:00,
2013-11-15 18:43:00,46.0,30.0,30.05,SSW,209,3.0,6.0,54,0.00,,,0.00,,2013-11-15 23:43:00,
2013-11-15 18:52:00,46.0,31.0,30.05,SSE,160,1.0,3.0,55,0.00,,,0.00,,2013-11-15 23:52:00,
2013-11-15 19:11:00,46.0,32.0,30.04,South,180,1.0,5.0,57,0.00,,,0.00,,2013-11-16 00:11:00,
2013-11-15 19:22:00,45.0,31.0,30.03,SE,141,0.0,5.0,57,0.00,,,0.00,,2013-11-16 00:22:00,
2013-11-15 19:42:00,45.0,31.0,30.04,SE,146,1.0,4.0,57,0.00,,,0.00,,2013-11-16 00:42:00,
2013-11-15 19:52:00,45.0,30.0,30.04,SSE,148,1.0,3.0,56,0.00,,,0.00,,2013-11-16 00:52:00,
2013-11-15 20:12:00,45.0,30.0,30.05,SE,142,2.0,6.0,56,0.00,,,0.00,,2013-11-16 01:12:00,
2013-11-15 20:22:00,45.0,31.0,30.05,SE,145,2.0,5.0,57,0.00,,,0.00,,2013-11-16 01:22:00,
2013-11-15 20:42:00,44.0,30.0,30.05,SSE,162,2.0,5.0,58,0.00,,,0.00,,2013-11-16 01:42:00,
2013-11-15 20:52:00,44.0,31.0,30.06,South,180,1.0,4.0,59,0.00,,,0.00,,2013-11-16 01:52:00,
2013-11-15 21:12:00,43.0,30.0,30.06,SE,141,1.0,3.0,60,0.00,,,0.00,,2013-11-16 02:12:00,
2013-11-15 21:22:00,43.0,30.0,30.06,SSE,153,1.0,4.0,61,0.00,,,0.00,,2013-11-16 02:22:00,
2013-11-15 21:42:00,43.0,30.0,30.07,South,180,1.0,6.0,61,0.00,,,0.00,,2013-11-16 02:42:00,
2013-11-15 21:52:00,43.0,30.0,30.07,South,186,2.0,5.0,61,0.00,,,0.00,,2013-11-16 02:52:00,
2013-11-15 22:11:00,43.0,30.0,30.07,South,169,2.0,5.0,61,0.00,,,0.00,,2013-11-16 03:11:00,
2013-11-15 22:22:00,43.0,31.0,30.07,SE,134,1.0,4.0,62,0.00,,,0.00,,2013-11-16 03:22:00,
2013-11-15 22:44:00,42.0,30.0,30.07,SSE,153,2.0,5.0,62,0.00,,,0.00,,2013-11-16 03:44:00,
2013-11-15 22:55:00,42.0,30.0,30.06,SSW,194,1.0,5.0,63,0.00,,,0.00,,2013-11-16 03:55:00,
2013-11-15 23:24:00,42.0,31.0,30.06,SW,214,2.0,4.0,65,0.00,,,0.00,,2013-11-16 04:24:00,
2013-11-15 23:43:00,41.0,31.0,30.07,SW,231,1.0,6.0,66,0.00,,,0.00,,2013-11-16 04:43:00,
2013-11-15 23:53:00,41.0,31.0,30.08,South,170,1.0,4.0,67,0.00,,,0.00,,2013-11-16 04:53:00,